Regional Weather Roundup
Issued by NWS

Home | Current Version | Previous Version | Text Only | Print | Product List | Glossary Off
Versions: 1 2 3 4 5 6 7 8 9 10 11 12 13 14 15 16 17 18 19 20 21 22 23 24 25 26 27 28 29 30 31 32 33 34 35 36 37 38 39 40 41 42 43 44 45 46 47 48 49 50

000
ASUS43 KMPX 220701
RWRMN
WEATHER ROUNDUP FOR MINNESOTA
NATIONAL WEATHER SERVICE TWIN CITIES/CHANHASSEN MN
200 AM CDT TUE AUG 22 2017


NOTE: "FAIR" INDICATES FEW OR NO CLOUDS BELOW 12,000 FEET WITH NO
SIGNIFICANT WEATHER AND/OR OBSTRUCTIONS TO VISIBILITY. N/A MEANS
CURRENT SKY AND/OR WEATHER CONDITIONS ARE NOT AVAILABLE.

MNZ060>063-068>070-220800-
   Twin Cities Metro

CITY           SKY/WX    TMP DP  RH WIND       PRES   REMARKS
TWIN CITIES    PTCLDY    66  61  84 NW12      29.89R
ST PAUL        CLOUDY    67  63  87 NW10      29.88R
CRYSTAL        PTCLDY    65  59  81 NW9       29.87R
BLAINE         CLEAR     66  64  94 NW9       29.88R
LAKEVILLE      CLEAR     63  63 100 W6        29.89S
EDEN PRAIRIE   CLEAR     67  60  78 NW10      29.88R
SOUTH ST PAUL  PTCLDY    67  63  87 NW8       29.88R
LAKE ELMO      MOCLDY    66  63  88 W9        29.88R
$$
MNZ001>005-007-008-013>017-022>024-027-028-220800-
   Northwest Minnesota

CITY           SKY/WX    TMP DP  RH WIND       PRES   REMARKS
BEMIDJI        CLEAR     52  50  93 W8        29.96R
HALLOCK        CLEAR     48  46  93 W5        29.97S
ROSEAU         CLEAR     52  46  82 W7        29.94S
WARROAD        CLEAR     48  45  87 W3        29.94S
CROOKSTON      CLEAR     48  48 100 W3        30.00S
FOSSTON        CLEAR     50  50 100 W5        29.99S
DETROIT LAKES  CLEAR     54  52  94 NW6       30.00S
MOORHEAD       CLEAR     54  52  94 NW6       30.01S
PARK RAPIDS    CLEAR     55  52  89 NW9       29.96R
MAHNOMEN       FAIR      53  51  94 NW6       29.99R
$$
MNZ006-009>011-018-025>026-220800-
   North Central Minnesota

CITY           SKY/WX    TMP DP  RH WIND       PRES   REMARKS
BAUDETTE       CLEAR     51  50  96 W8        29.91S
FLAG ISLAND      N/A     55  50  82 W5        29.90S
INTL FALLS     CLEAR     51  49  92 CALM      29.88F FOG
WASKISH        CLEAR     55  54  94 NW10      29.93S
BIG FORK       CLEAR     54  52  94 NW6       29.90S
LONGVILLE      CLEAR     59  55  88 NW6       29.92R
GRAND RAPIDS   CLEAR     56  53  90 NW12      29.91S
CRANE LAKE     CLOUDY    52  52 100 CALM      29.88S
ORR            MOCLDY    55  52  88 NW6       29.85S
COOK           CLOUDY    55  54  94 W3        29.87S
WALKER         FAIR      54  52  94 NW7       29.94R
$$
MNZ012-019>021-037-220800-
   Northeast Minnesota

CITY           SKY/WX    TMP DP  RH WIND       PRES   REMARKS
DULUTH         CLOUDY    55  55 100 NW6       29.85R
ELY            MOCLDY    52  52 100 CALM      29.85R
HIBBING        MOCLDY    53  53 100 W3        29.87S
EVELETH        MOCLDY    58  54  88 W3        29.87S
DULUTH HARBOR  CLOUDY    61  57  88 CALM      29.85R
TWO HARBORS    MOCLDY    59  54  82 CALM      29.83R
SILVER BAY     CLOUDY    55  54  94 CALM      29.82R
GRAND MARAIS     N/A     58  56  93 N6        29.79F
$$
MNZ029>031-032-039>041-046>048-054>057-064-220800-
   West Central Minnesota

CITY           SKY/WX    TMP DP  RH WIND       PRES   REMARKS
FERGUS FALLS   CLEAR     55  55 100 NW7       30.01R
WHEATON        PTCLDY    57  52  82 W8        30.04S
MORRIS         CLEAR     57  54  88 NW12      29.99S
ALEXANDRIA     CLEAR     60  54  80 N10       29.98R
ELBOW LAKE     FAIR      55  54  94 W8        30.00S
WADENA         CLEAR     55  52  88 NW8       29.96S
GLENWOOD       CLEAR     59  55  88 NW9G16    29.97R
APPLETON       CLEAR     61  54  77 NW12G17   29.99S
BENSON         CLEAR     57  54  88 N10       29.99S
ORTONVILLE     CLEAR     59  52  77 MISG      30.02R
MADISON        CLEAR     63  55  77 NW8       30.02R
WILLMAR        FAIR      61  57  88 NW10      29.98R
$$
MNZ033>034-036-042>043-049>051-058-059-220800-
   Central Minnesota

CITY           SKY/WX    TMP DP  RH WIND       PRES   REMARKS
ST CLOUD       CLEAR     60  59  96 NW9       29.91R
SAUK CENTRE    FAIR      60  57  92 NW8       29.95R
PAYNESVILLE    CLEAR     60  58  92 NW7       29.95R
AITKIN         MOCLDY    57  55  94 CALM      29.89R
PINE RIVER     CLEAR     55  52  88 NW5       29.96R
BRAINERD       CLEAR     60  56  86 NW12      29.92R
STAPLES        CLEAR     55  54  94 NW9       29.95R
LONG PRAIRIE   FAIR      59  52  77 W13       29.95R
LITTLE FALLS   CLEAR     61  55  82 NW7       29.93R
LITCHFIELD     CLEAR     64  61  88 NW7       29.94R
BUFFALO        CLEAR     64  58  82 NW7       29.92R
MAPLE LAKE     CLEAR     63  60  91 NW6       29.92R
HUTCHINSON     CLEAR     62  60  93 W6        29.94S
$$
MNZ037-044-045-052-053-220800-
   East Central Minnesota

CITY           SKY/WX    TMP DP  RH WIND       PRES   REMARKS
PRINCETON      CLEAR     63  61  94 W5        29.89R
MORA           CLEAR     59  55  88 NW6       29.90R
CAMBRIDGE      CLEAR     64  61  88 W5        29.88R
RUSH CITY      MOCLDY    62  59  90 NW5       29.87R
MOOSE LAKE     CLEAR     57  55  94 NW3       29.86R
HINCKLEY       FAIR      61  59  94 NW7       29.86S
CLOQUET        CLEAR     55  54  94 NW6       29.87R
MCGREGOR       CLEAR     55  54  94 CALM      29.89R
$$
MNZ071>073-080-081-089-090-097-098-220800-
   Southwest Minnesota

CITY           SKY/WX    TMP DP  RH WIND       PRES   REMARKS
MONTEVIDEO     CLEAR     59  57  94 N10       29.99R
GRANITE FALLS  CLEAR     62  57  85 NW9       30.01R
CANBY          CLEAR     60  54  81 W6        30.04R
MARSHALL       CLEAR     62  57  83 NW14      30.01R
REDWOOD FALLS  CLEAR     63  57  81 NW13      29.96R
OLIVIA         CLEAR     59  55  88 NW12      29.95S
PIPESTONE      CLEAR     63  55  77 N9        30.04R
WINDOM         CLEAR     64  57  77 NW21G26   29.98R
WORTHINGTON    CLEAR     64  59  83 NW14      30.01R
JACKSON        CLEAR     63  59  88 NW9       29.99R
TRACY          CLEAR     63  59  88 NW12      30.01R
SLAYTON        PTCLDY    62  56  80 NW9       30.02R
$$
MNZ065>067-074>077-082>085-091>093-220800-
   South Central Minnesota

CITY           SKY/WX    TMP DP  RH WIND       PRES   REMARKS
MANKATO        CLEAR     64  61  90 NW8       29.94R
NEW ULM        CLEAR     63  57  82 NW14      29.94R
ST JAMES       CLEAR     63  59  88 NW7       29.96R
FAIRMONT       CLEAR     63  61  93 NW8       29.97R
GLENCOE        CLEAR     64  62  92 NW10      29.92R
FARIBAULT      CLEAR     64  63  94 W9        29.92R
OWATONNA       PTCLDY    63  63 100 W8        29.93R
WASECA         CLOUDY    63  61  94 W5        29.95R
ALBERT LEA     MOCLDY    64  64 100 W5        29.94S
$$
MNZ078>079-086>088-094>096-220800-
   Southeast Minnesota

CITY           SKY/WX    TMP DP  RH WIND       PRES   REMARKS
ROCHESTER      PTCLDY    63  62  97 W9        29.91F
RED WING       CLOUDY    66  63  88 W8        29.86R
STANTON        CLOUDY    65  62  88 W6        29.89R
DODGE CENTER   MOCLDY    63  61  94 W8        29.92S
WINONA         MOCLDY    68  63  83 W8        29.87F
AUSTIN         MOCLDY    63  61  94 W5        29.92F
PRESTON        CLOUDY    64  61  91 W8        29.91F
$$
ABBREVIATIONS USED IN REMARKS
   TC - TEMPERATURES IN CELSIUS
  WCI - WIND CHILL INDEX
   HX - HEAT INDEX
  VSB - VISIBILITY
$$




USA.gov is the U.S. government's official web portal to all federal, state and local government web resources and services.